EN

Hourly Weather Gogolin

Today, 19 May, Wednesday

Time Temperature Precipitation Wind Pressure Humidity
00:00 +9°C° 0 mm 2 mps 753 mmHg 94%
01:00 +8°C° 0 mm 2 mps 753 mmHg 93%
02:00 +8°C° 0 mm 2 mps 753 mmHg 94%
03:00 +8°C° 0 mm 2 mps 753 mmHg 94%
04:00 +7°C° 0 mm 2 mps 753 mmHg 94%
05:00 +8°C° 0 mm 3 mps 753 mmHg 90%
06:00 +9°C° 0 mm 3 mps 753 mmHg 86%
07:00 +10°C° 0 mm 3 mps 754 mmHg 83%
08:00 +11°C° 0 mm 4 mps 754 mmHg 77%
09:00 +13°C° 0 mm 4 mps 754 mmHg 72%
10:00 +14°C° 0 mm 4 mps 754 mmHg 67%
11:00 +15°C° 0.1 mm 4 mps 754 mmHg 63%
12:00 +15°C° 0.1 mm 4 mps 754 mmHg 58%
13:00 +17°C° 0.1 mm 4 mps 753 mmHg 54%
14:00 +17°C° 0.2 mm 4 mps 754 mmHg 58%
15:00 +16°C° 0.2 mm 3 mps 754 mmHg 62%
16:00 +14°C° 0.2 mm 3 mps 754 mmHg 66%
17:00 +13°C° 0.1 mm 3 mps 754 mmHg 69%
18:00 +12°C° 0.1 mm 3 mps 755 mmHg 72%
19:00 +12°C° 0.1 mm 2 mps 755 mmHg 75%
20:00 +10°C° 0 mm 2 mps 755 mmHg 78%
21:00 +9°C° 0 mm 2 mps 756 mmHg 80%
22:00 +9°C° 0 mm 1 mps 756 mmHg 83%
23:00 +7°C° 0 mm 2 mps 756 mmHg 83%

Tomorrow, 20 May, Thursday

Time Temperature Precipitation Wind Pressure Humidity
00:00 +6°C° 0 mm 2 mps 756 mmHg 84%
01:00 +6°C° 0 mm 2 mps 756 mmHg 85%
02:00 +6°C° 0 mm 2 mps 757 mmHg 86%
03:00 +5°C° 0 mm 2 mps 757 mmHg 87%
04:00 +5°C° 0 mm 2 mps 757 mmHg 87%
05:00 +7°C° 0 mm 2 mps 757 mmHg 82%
06:00 +9°C° 0 mm 3 mps 757 mmHg 76%
07:00 +11°C° 0 mm 3 mps 758 mmHg 71%
08:00 +12°C° 0 mm 3 mps 758 mmHg 65%
09:00 +14°C° 0 mm 3 mps 757 mmHg 59%
10:00 +16°C° 0 mm 3 mps 757 mmHg 53%
11:00 +16°C° 0 mm 3 mps 757 mmHg 54%
12:00 +17°C° 0 mm 3 mps 757 mmHg 54%
13:00 +17°C° 0 mm 3 mps 757 mmHg 54%
14:00 +15°C° 0.2 mm 4 mps 757 mmHg 59%
15:00 +15°C° 0.2 mm 4 mps 757 mmHg 63%
16:00 +14°C° 0.2 mm 4 mps 758 mmHg 67%
17:00 +13°C° 0.1 mm 3 mps 758 mmHg 69%
18:00 +12°C° 0.1 mm 3 mps 758 mmHg 71%
19:00 +13°C° 0.1 mm 2 mps 758 mmHg 73%
20:00 +10°C° 0 mm 2 mps 758 mmHg 76%
21:00 +9°C° 0 mm 2 mps 758 mmHg 79%
22:00 +8°C° 0 mm 2 mps 759 mmHg 82%
23:00 +7°C° 0 mm 2 mps 759 mmHg 84%

Day after tomorrow, 21 May, Friday

Time Temperature Precipitation Wind Pressure Humidity
00:00 +8°C° 0 mm 1 mps 758 mmHg 85%
01:00 +7°C° 0 mm 1 mps 758 mmHg 86%
02:00 +6°C° 0 mm 2 mps 758 mmHg 88%
03:00 +6°C° 0 mm 2 mps 758 mmHg 89%
04:00 +6°C° 0 mm 2 mps 758 mmHg 91%
05:00 +8°C° 0 mm 3 mps 758 mmHg 86%
06:00 +9°C° 0 mm 3 mps 758 mmHg 81%
07:00 +11°C° 0 mm 4 mps 757 mmHg 76%
08:00 +13°C° 0 mm 4 mps 757 mmHg 70%
09:00 +14°C° 0 mm 5 mps 757 mmHg 64%
10:00 +16°C° 0 mm 6 mps 757 mmHg 58%
11:00 +16°C° 0 mm 6 mps 756 mmHg 56%
12:00 +17°C° 0 mm 6 mps 756 mmHg 54%
13:00 +17°C° 0 mm 6 mps 755 mmHg 52%
14:00 +17°C° 0.1 mm 6 mps 755 mmHg 56%
15:00 +16°C° 0.1 mm 6 mps 754 mmHg 61%
16:00 +16°C° 0.1 mm 6 mps 753 mmHg 65%
17:00 +15°C° 0.3 mm 5 mps 753 mmHg 69%
18:00 +14°C° 0.3 mm 5 mps 753 mmHg 73%
19:00 +13°C° 0.3 mm 5 mps 752 mmHg 76%
20:00 +12°C° 0.2 mm 4 mps 752 mmHg 81%
21:00 +12°C° 0.2 mm 3 mps 752 mmHg 86%
22:00 +11°C° 0.2 mm 3 mps 752 mmHg 91%
23:00 +10°C° 0 mm 3 mps 752 mmHg 92%

22 May, Saturday

Time Temperature Precipitation Wind Pressure Humidity
00:00 +10°C° 0 mm 3 mps 752 mmHg 93%
01:00 +9°C° 0 mm 3 mps 752 mmHg 95%
02:00 +9°C° 0 mm 3 mps 752 mmHg 95%
03:00 +9°C° 0 mm 3 mps 751 mmHg 95%
04:00 +8°C° 0 mm 4 mps 751 mmHg 95%
05:00 +10°C° 0 mm 4 mps 751 mmHg 92%
06:00 +11°C° 0 mm 4 mps 751 mmHg 88%
07:00 +12°C° 0 mm 5 mps 751 mmHg 85%
08:00 +13°C° 0.1 mm 5 mps 751 mmHg 81%
09:00 +14°C° 0.1 mm 6 mps 751 mmHg 77%
10:00 +15°C° 0.1 mm 6 mps 751 mmHg 73%
11:00 +14°C° 0.4 mm 6 mps 751 mmHg 77%
12:00 +14°C° 0.4 mm 5 mps 751 mmHg 81%
13:00 +14°C° 0.4 mm 5 mps 751 mmHg 84%
14:00 +13°C° 0.6 mm 5 mps 751 mmHg 86%
15:00 +13°C° 0.6 mm 4 mps 750 mmHg 88%
16:00 +12°C° 0.6 mm 4 mps 750 mmHg 89%
17:00 +12°C° 0.2 mm 4 mps 750 mmHg 88%
18:00 +12°C° 0.2 mm 4 mps 750 mmHg 86%
19:00 +12°C° 0.2 mm 3 mps 750 mmHg 85%
20:00 +11°C° 0 mm 3 mps 750 mmHg 87%
21:00 +10°C° 0 mm 3 mps 750 mmHg 90%
22:00 +9°C° 0 mm 3 mps 751 mmHg 92%
23:00 +9°C° 0 mm 3 mps 751 mmHg 93%

23 May, Sunday

Time Temperature Precipitation Wind Pressure Humidity
00:00 +8°C° 0 mm 3 mps 751 mmHg 95%
01:00 +8°C° 0 mm 3 mps 751 mmHg 96%
02:00 +8°C° 0 mm 3 mps 751 mmHg 95%
03:00 +7°C° 0 mm 4 mps 751 mmHg 95%
04:00 +7°C° 0 mm 5 mps 751 mmHg 94%
05:00 +8°C° 0 mm 5 mps 752 mmHg 91%
06:00 +9°C° 0 mm 5 mps 752 mmHg 89%
07:00 +9°C° 0 mm 5 mps 752 mmHg 87%
08:00 +10°C° 0.1 mm 6 mps 753 mmHg 80%
09:00 +10°C° 0.1 mm 6 mps 753 mmHg 74%
10:00 +11°C° 0.1 mm 7 mps 754 mmHg 67%
11:00 +11°C° 0 mm 6 mps 754 mmHg 65%
12:00 +11°C° 0 mm 6 mps 754 mmHg 63%
13:00 +11°C° 0 mm 6 mps 755 mmHg 61%
14:00 +11°C° 0 mm 6 mps 755 mmHg 60%
15:00 +12°C° 0 mm 5 mps 755 mmHg 60%
16:00 +10°C° 0 mm 5 mps 756 mmHg 59%
17:00 +11°C° 0 mm 4 mps 756 mmHg 62%
18:00 +11°C° 0 mm 3 mps 756 mmHg 64%
19:00 +10°C° 0 mm 2 mps 756 mmHg 67%
20:00 +9°C° 0 mm 2 mps 756 mmHg 71%
21:00 +8°C° 0 mm 2 mps 757 mmHg 75%
22:00 +7°C° 0 mm 2 mps 757 mmHg 79%
23:00 +7°C° 0 mm 2 mps 757 mmHg 79%

24 May, Monday

Time Temperature Precipitation Wind Pressure Humidity
00:00 +5°C° 0 mm 3 mps 757 mmHg 79%
01:00 +5°C° 0 mm 3 mps 757 mmHg 79%
02:00 +6°C° 0 mm 4 mps 757 mmHg 80%
03:00 +6°C° 0 mm 4 mps 757 mmHg 80%
04:00 +6°C° 0 mm 4 mps 756 mmHg 81%
05:00 +8°C° 0 mm 5 mps 756 mmHg 79%
06:00 +9°C° 0 mm 5 mps 756 mmHg 77%
07:00 +10°C° 0 mm 5 mps 756 mmHg 75%
08:00 +11°C° 0 mm 6 mps 756 mmHg 73%
09:00 +12°C° 0 mm 7 mps 756 mmHg 71%
10:00 +14°C° 0 mm 7 mps 756 mmHg 69%
11:00 +14°C° 0.1 mm 7 mps 756 mmHg 70%
12:00 +14°C° 0.1 mm 6 mps 756 mmHg 70%
13:00 +14°C° 0.1 mm 6 mps 756 mmHg 71%
14:00 +14°C° 0.2 mm 6 mps 756 mmHg 72%
15:00 +15°C° 0.2 mm 7 mps 756 mmHg 72%
16:00 +15°C° 0.2 mm 7 mps 756 mmHg 73%
17:00 +15°C° 0.1 mm 7 mps 756 mmHg 73%
18:00 +14°C° 0.1 mm 6 mps 756 mmHg 74%
19:00 +14°C° 0.1 mm 6 mps 756 mmHg 75%
20:00 +13°C° 0.1 mm 5 mps 756 mmHg 75%
21:00 +13°C° 0.1 mm 5 mps 756 mmHg 75%
22:00 +12°C° 0.1 mm 5 mps 756 mmHg 76%
23:00 +12°C° 0.1 mm 5 mps 756 mmHg 77%
Show more